Location: Hall+in+Tirol
(47.2830°N, 11.5170°E)
Time: 10:50:03
(UTC+01:00)

Daily predictions for brighter satellites

Satellite Brightness Start Highest point End
(mag) Time Altitude Azimuth Time Altitude Azimuth Time Altitude Azimuth
SPOT 3 Rocket 4.0 16:48:10 10° SE 16:52:56 39° ENE 16:57:43 10° N
Cosmos 2082 Rocket 3.0 16:50:36 10° NNW 16:55:32 29° NE 17:00:26 10° ESE
MTI 3.8 16:53:01 10° NNE 16:56:20 87° ESE 16:59:38 10° SSW
Meteor 1-5 Rocket 4.2 16:51:23 10° N 16:56:51 82° ENE 17:02:28 10° SSE
Cosmos 1633 4.1 16:53:51 10° NNW 16:57:15 41° W 17:00:37 10° SSW
USA 32 4.4 16:54:57 10° SSE 16:59:54 45° E 17:04:52 10° NNE
Cosmos 2341 Rocket 4.2 16:53:40 10° N 16:59:54 79° W 17:06:07 10° S
Cosmos 1346 Rocket 4.5 16:59:31 10° ESE 17:01:44 15° E 17:03:56 10° NE
BREEZE-M DEB (TANK) 3.8 16:50:56 10° WSW 17:02:00 71° NNW 17:06:23 10° ENE
Cosmos 1125 Rocket 4.2 16:57:23 10° SW 17:02:36 57° WNW 17:07:52 10° NNE
Tiangong 1 3.5 17:04:05 10° S 17:05:30 13° SSE 17:06:55 10° SE
CZ-2C R/B 3.6 17:06:35 10° NNE 17:11:04 81° ESE 17:15:34 10° SSW
Cosmos 2263 Rocket 3.9 17:08:34 10° WSW 17:13:20 28° NW 17:18:10 10° N
Genesis I 3.2 17:09:35 10° NNW 17:13:32 65° NE 17:17:24 10° SE
ERBS 4.3 17:14:10 10° NW 17:16:27 16° N 17:18:30 11° NE
MSX 4.1 17:11:32 10° SE 17:16:56 44° ENE 17:22:21 10° N
Meteor 1-12 Rocket 4.3 17:12:38 10° N 17:18:24 62° ENE 17:24:13 10° SSE
IDEFIX/ARIANE 42P 2.6 17:14:09 10° SSE 17:19:15 60° ENE 17:24:22 10° N
Cosmos 1544 Rocket 3.6 17:15:49 10° N 17:20:19 85° E 17:24:48 10° S
COSMOS 2487 2.9 17:18:03 10° N 17:21:29 39° ENE 17:24:53 10° SE
MOS 1 4.2 17:17:10 10° SSE 17:22:47 72° ENE 17:28:26 10° NNW
Thor Agena Rocket 3.8 17:19:04 10° NNE 17:24:09 50° E 17:29:15 10° S
COSMO-SKYMED 1 4.0 17:22:43 11° NE 17:25:28 19° E 17:28:35 10° SE
SL-16 R/B 4.4 17:21:41 10° N 17:26:36 26° WNW 17:31:30 10° WSW
Cosmos 1975 Rocket 3.8 17:23:50 10° SSW 17:28:04 55° WNW 17:32:21 10° N
Cosmos 2251 Rocket 4.1 17:24:39 10° NNW 17:29:58 65° WSW 17:35:13 10° S
Cosmos 1743 3.8 17:27:21 10° NNE 17:30:32 23° ENE 17:33:41 10° SE
Cosmos 1500 3.4 17:29:54 10° N 17:33:38 47° ENE 17:37:21 10° SSE
USA 234 3.5 17:28:24 13° ENE 17:34:22 61° SE 17:40:48 10° SW
Cosmos 1844 Rocket 3.1 17:31:25 10° SW 17:36:58 63° WNW 17:42:36 10° NNE
Cosmos 1975 2.8 17:33:35 10° N 17:37:40 68° E 17:41:41 10° SSE
Abrixas 2.8 17:37:12 10° W 17:40:08 61° SSW 17:42:35 14° ESE
EP 2 4.2 17:38:44 10° SW 17:41:18 80° SE 17:42:54 23° NE
Cosmos 1484 Rocket 3.1 17:39:25 10° SE 17:42:53 38° ENE 17:46:22 10° N
CZ-4 R/B 2.0 17:38:58 10° S 17:43:05 64° WSW 17:47:12 10° NNW
OPS 8737 4.2 17:40:12 10° SW 17:43:25 80° NW 17:45:33 20° NE
SMAP 3.1 17:39:14 10° SSE 17:43:53 83° WSW 17:48:34 10° NNW
SL-24 DEB 4.4 17:39:29 10° NNE 17:44:07 51° E 17:48:41 10° SSE
Cosmos 1536 Rocket 3.5 17:40:15 10° S 17:44:42 73° E 17:49:11 10° NNE
NOSS 3-4 (A) 4.0 17:38:44 10° NW 17:45:23 48° NE 17:52:26 10° ESE
NOSS 3-4 (C) 4.0 17:38:50 10° NW 17:45:29 48° NE 17:52:30 10° ESE
Cosmos 1025 Rocket 4.4 17:42:59 10° SE 17:46:02 19° E 17:46:02 19° E
Cosmos 921 Rocket 3.9 17:43:34 10° SSE 17:47:13 28° E 17:48:53 22° ENE
SL-8 R/B 3.9 17:42:31 10° WSW 17:47:14 64° SSE 17:50:18 21° E
CORIOLIS 4.2 17:42:28 10° SSE 17:47:53 88° WSW 17:53:19 10° NNW
YAOGAN 1 2.9 17:49:20 10° S 17:53:39 71° WSW 17:58:00 10° NNW
NOSS 3-3 (A) 4.0 17:48:37 10° SSW 17:54:50 77° SE 18:00:10 17° NE
NOSS 3-3 (C) 4.0 17:48:43 10° SSW 17:54:56 77° SE 18:00:16 17° NE
Cosmos 1809 Rocket 4.4 17:52:45 10° N 17:58:57 79° E 18:05:04 10° SSE
ATLAS 2AS CENTAUR R/B 4.4 17:52:47 10° NW 18:00:12 42° WSW 18:07:10 10° S
Cosmos 1844 4.3 17:57:25 10° SW 18:02:50 54° WNW 18:08:19 10° NNE
ISS -2.6 18:03:21 10° W 18:06:30 41° N 18:07:15 35° NNE
Cosmos 2297 3.8 18:01:02 10° S 18:06:32 55° ESE 18:10:00 22° NE
NOAA 12 4.4 18:03:36 10° SE 18:08:33 43° ENE 18:13:30 10° N
Cosmos 1812 3.8 18:06:15 10° SSW 18:09:58 45° WNW 18:13:42 10° N
Cosmos 1934 Rocket 4.2 18:04:37 10° N 18:10:34 45° ENE 18:16:33 10° SSE
Timation 1 Rocket 4.5 18:07:07 10° S 18:12:51 51° ESE 18:15:59 26° NE
SKYMED 2 3.6 18:11:21 23° NNE 18:13:52 56° E 18:18:07 10° S
Cosmos 407 Rocket 4.0 18:10:36 10° N 18:15:18 35° ENE 18:15:56 34° ENE
Cosmos 1238 Rocket 4.2 18:12:59 10° SW 18:15:37 28° WNW 18:18:29 10° NNW
Cosmos 1535 Rocket 4.5 18:09:39 10° N 18:15:56 61° ENE 18:22:05 10° SSE
Cosmos 2056 Rocket 4.3 18:12:10 10° SSE 18:16:42 29° ESE 18:16:42 29° ESE
Cosmos 2278 Rocket 2.5 18:11:56 10° SW 18:17:33 65° WNW 18:22:20 15° NNE
CZ-3A R/B 4.1 18:15:09 10° W 18:21:10 70° NNW 18:40:30 23° ENE
SL-24 R/B - RUBIN 2 4.5 18:19:48 10° SSW 18:26:14 84° SE 18:30:11 27° NE
METEOR-M 4.2 18:21:41 10° SE 18:26:51 53° ENE 18:32:03 10° N
CZ-2C R/B 4.2 18:22:37 10° SSW 18:27:13 35° W 18:31:56 10° NNW
Cosmos 2239 Rocket 4.3 18:23:38 10° N 18:29:53 78° E 18:36:02 10° SSE
Cosmos 1624 Rocket 4.4 18:25:07 10° S 18:29:54 40° ESE 18:29:54 40° ESE
Okean 1-7 Rocket 3.5 18:25:29 10° S 18:29:59 80° E 18:32:26 27° NNE
Cosmos 1371 Rocket 4.1 18:29:57 10° S 18:35:09 55° ESE 18:36:13 47° ENE
Cosmos 1833 Rocket 2.9 18:29:56 10° NNW 18:35:34 70° WSW 18:41:09 10° SSE
Cosmos 1346 Rocket 3.7 18:33:59 10° SSW 18:37:44 46° WNW 18:40:20 18° N
Cosmos 2082 Rocket 2.9 18:34:25 10° NW 18:39:57 56° WSW 18:45:29 10° S
BREEZE-M DEB (TANK) 3.3 18:34:04 10° WNW 18:40:13 66° N 18:40:15 66° N
Tiangong 1 2.9 18:38:25 10° SW 18:40:14 24° SSW 18:40:14 24° SSW
Cosmos 1821 Rocket 3.8 18:35:00 10° N 18:41:08 89° E 18:47:14 10° S
GEOS 3 Rocket 3.5 18:39:20 27° SE 18:42:13 90° NE 18:47:23 10° NW
CZ-3B DEB 2.9 18:39:23 10° WSW 18:44:06 69° NNW 18:49:19 31° NE
FengYun 1-2 T 4.4 18:45:19 49° ENE 18:45:19 49° ENE 18:50:29 10° N
NOSS 2-1 (D) 3.4 18:44:03 10° SSW 18:47:31 68° S 18:47:31 68° S
Meteor 1-19 Rocket 4.3 18:42:25 10° SSW 18:48:14 84° W 18:53:30 13° N
NOSS 2-1 (C) 3.5 18:44:43 10° SSW 18:48:10 66° S 18:48:10 66° S
Cosmos 1605 Rocket 3.9 18:45:25 10° N 18:51:43 64° ENE 18:57:52 10° SSE
Cosmos 1606 Rocket 3.5 18:52:30 10° N 18:57:00 84° W 19:01:29 10° S
Meteor 1-15 Rocket 4.2 18:51:26 10° N 18:57:24 82° E 19:03:13 10° SSE
BREEZE-M R/B 3.5 18:50:55 10° WSW 18:59:50 86° NNW 19:00:24 72° ENE
COSMO-SKYMED 1 3.5 18:59:56 28° NNW 19:01:54 47° WNW 19:06:03 10° SW
Cosmos 1190 Rocket 3.9 18:59:44 10° NNW 19:05:01 83° WSW 19:06:08 57° S
NOSS 2-1 (E) 4.1 19:03:18 10° SW 19:06:16 51° SW 19:06:16 51° SW
BREEZE M DEB (TANK) 3.5 19:05:39 10° WSW 19:09:54 40° SW 19:09:54 40° SW
BREEZE M DEB (TANK) 3.8 19:09:24 10° WNW 19:13:24 68° SSW 19:16:42 39° SE
Meteor 1-23 Rocket 4.2 19:08:08 10° SSW 19:13:51 81° W 19:15:03 57° N
USA 234 3.6 19:15:45 46° NNE 19:17:22 57° NNW 19:23:44 10° W
Meteor 2-4 Rocket 4.0 19:16:00 10° SSW 19:21:17 61° WNW 19:22:35 47° NNW
Cosmos 1025 Rocket 4.1 19:19:10 10° SSW 19:23:00 43° W 19:23:00 43° W
NOSS 3-4 (A) 4.5 19:29:44 10° NW 19:36:28 51° WSW 19:40:51 24° S
NOSS 3-4 (C) 4.5 19:29:50 10° NW 19:36:35 51° WSW 19:40:50 24° S
CZ-3B DEB 4.4 21:12:43 10° WNW 21:17:29 46° NW 21:17:29 46° NW
